User: anonymous
Location: Unspecified
(0.0000°N, 0.0000°E)
Time: 09:29:03
(UTC+02:00)
Language:

Resurs 01 Rocket - Orbit

View from above orbital plane
View from above orbital plane
View from above satellite
View from above satellite

Ground track
Ground track

The orbit data is extracted from the following two-line orbital elements,

1 23343U 94074B   14234.65582628  .00000171  00000-0  32518-4 0   875
2 23343 098.2255 239.7476 0008403 126.6763 009.7018 14.76167077 64902
Epoch (UTC): 22 August 2014 15:44:23
Eccentricity: 0.0008403
inclination: 98.2255°
perigee height: 635 km
apogee height: 647 km
right ascension of ascending node: 239.7476°
argument of perigee: 126.6763°
revolutions per day: 14.76167077
mean anomaly at epoch: 9.7018°
orbit number at epoch: 6490

The dashed part of the orbit path shows where the satellite is in the earth's shadow,  

DLR